This demonstration page uses our WeatherBlox Daily Observations layout. Learn more.

Left ArrowRight Arrow

39.08367, -84.50855

Hourly Observations for July 30, 2015

Temp ( °F °C ) Dew Point ( °F °C ) Humidity (%) Winds ( mph kmh ) Pressure ( in mb ) Visibility ( mi km ) Precip ( " mm )
12:53 am 00:53 Clear 76 24.4 73 22.8 91 91 SW 5 7 29.97 1015 10 16 0.00 0.00
1:53 am 01:53 Clear 75 23.9 73 22.8 94 94 WNW 5 7 29.97 1015 10 16 0.00 0.00
2:53 am 02:53 Mostly Cloudy 76 24.4 70 21.1 82 82 NW 5 7 29.97 1015 10 16 0.00 0.00
3:53 am 03:53 Cloudy 75 23.9 67 19.4 76 76 NW 5 7 29.98 1015 10 16 0.00 0.00
4:53 am 04:53 Cloudy 74 23.3 65 18.3 74 74 VRB 3 6 29.99 1016 10 16 0.00 0.00
5:53 am 05:53 Clear 71 21.7 63 17.2 76 76 Calm 30.01 1016 10 16 0.00 0.00
6:53 am 06:53 Sunny 68 20 64 17.8 87 87 Calm 30.03 1017 10 16 0.00 0.00
7:53 am 07:53 Sunny 70 21.1 63 17.2 79 79 Calm 30.04 1017 10 16 0.00 0.00
8:53 am 08:53 Sunny 75 23.9 61 16.1 62 62 N 7 11 30.05 1018 10 16 0.00 0.00
9:53 am 09:53 Sunny 77 25 62 16.7 60 60 N 7 11 30.06 1018 10 16 0.00 0.00
10:53 am 10:53 Sunny 80 26.7 62 16.7 54 54 N 6 9 30.06 1018 10 16 0.00 0.00
11:53 am 11:53 Sunny 82 27.8 59 15 46 46 VRB 3 6 30.06 1018 10 16 0.00 0.00
12:53 pm 12:53 Sunny 83 28.3 61 16.1 48 48 WNW 9 15 30.06 1018 10 16 0.00 0.00
1:53 pm 13:53 Sunny 83 28.3 60 15.6 46 46 WSW 10 17 30.05 1018 10 16 0.00 0.00
2:53 pm 14:53 Sunny 84 28.9 59 15 43 43 NW 9 15 30.05 1018 10 16 0.00 0.00
3:53 pm 15:53 Sunny 84 28.9 59 15 43 43 W 9 15 30.04 1017 10 16 0.00 0.00
4:53 pm 16:53 Sunny 84 28.9 58 14.4 41 41 WNW 14 22 30.03 1017 10 16 0.00 0.00
5:53 pm 17:53 Sunny 83 28.3 58 14.4 43 43 W 13 20 30.02 1017 10 16 0.00 0.00
6:53 pm 18:53 Sunny 82 27.8 57 13.9 42 42 NW 9 15 30.01 1016 10 16 0.00 0.00
7:53 pm 19:53 Sunny 81 27.2 57 13.9 44 44 WNW 9 15 30.01 1016 10 16 0.00 0.00
8:53 pm 20:53 Clear 80 26.7 58 14.4 47 47 NW 5 7 30.01 1016 10 16 0.00 0.00
9:53 pm 21:53 Clear 69 20.6 63 17.2 81 81 Calm 30.03 1017 10 16 0.00 0.00
10:53 pm 22:53 Clear 68 20 63 17.2 84 84 Calm 30.05 1018 10 16 0.00 0.00
11:53 pm 23:53 Clear 66 18.9 63 17.2 90 90 Calm 30.05 1018 10 16 0.00 0.00

Powered by AerisWeather